Location: Unnamed
(51.8936°N, 11.0665°E)
Time: 17:19:20
(UTC+02:00)

UKube-1 - Pass Details

Date: 02 October 2021
Orbit: 611 x 617 km, 98.4° (Epoch: 28 October)

Event Time Altitude Azimuth Distance (km) Brightness Sun altitude
Rises 23:34:40 0° 4° (N) 2,894 ? -38.5°
Reaches altitude 10° 23:37:19 10° 348° (NNW) 1,985 ? -38.7°
Enters shadow 23:37:44 12° 344° (NNW) 1,861 ? -38.7°
